Cypress Lake Weather Center

Moon Phase Calendar



Cypress Lake Water Level
Online Cameras

 


      

Current Conditions in Benton
9/21/2021 11:31:17 PM

71°F
Feels Like 71
Clouds
Humidity
79%
Pressure
30.18"
Wind
9 mph (N)
Dew Point
64°F
UV Index
0/10 (Low)
Visibility
6 mi

Hourly Forecast

Date & Time Tue, Sep 21
11:00 PM
Wed, Sep 22
12:00 AM
Wed, Sep 22
1:00 AM
Wed, Sep 22
2:00 AM
Wed, Sep 22
3:00 AM
Wed, Sep 22
4:00 AM
Wed, Sep 22
5:00 AM
Wed, Sep 22
6:00 AM
Wed, Sep 22
7:00 AM
Wed, Sep 22
8:00 AM
Wed, Sep 22
9:00 AM
Wed, Sep 22
10:00 AM
Wed, Sep 22
11:00 AM
Wed, Sep 22
12:00 PM
Wed, Sep 22
1:00 PM
Wed, Sep 22
2:00 PM
Wed, Sep 22
3:00 PM
Wed, Sep 22
4:00 PM
Wed, Sep 22
5:00 PM
Wed, Sep 22
6:00 PM
Wed, Sep 22
7:00 PM
Wed, Sep 22
8:00 PM
Wed, Sep 22
9:00 PM
Wed, Sep 22
10:00 PM
Wed, Sep 22
11:00 PM
Thu, Sep 23
12:00 AM
Thu, Sep 23
1:00 AM
Thu, Sep 23
2:00 AM
Thu, Sep 23
3:00 AM
Thu, Sep 23
4:00 AM
Thu, Sep 23
5:00 AM
Thu, Sep 23
6:00 AM
Thu, Sep 23
7:00 AM
Thu, Sep 23
8:00 AM
Thu, Sep 23
9:00 AM
Thu, Sep 23
10:00 AM
Thu, Sep 23
11:00 AM
Thu, Sep 23
12:00 PM
Thu, Sep 23
1:00 PM
Thu, Sep 23
2:00 PM
Thu, Sep 23
3:00 PM
Thu, Sep 23
4:00 PM
Thu, Sep 23
5:00 PM
Thu, Sep 23
6:00 PM
Thu, Sep 23
7:00 PM
Thu, Sep 23
8:00 PM
Thu, Sep 23
9:00 PM
Thu, Sep 23
10:00 PM
Condition
Clouds

Clouds

Clouds

Clouds

Clouds

Clouds

Clouds

Clouds

Clouds

Clear

Clear

Clear

Clear

Clear

Clear

Clear

Clear

Clear

Clear

Clear

Clear

Clear

Clear

Clear

Clear

Clear

Clear

Clear

Clear

Clear

Clear

Clear

Clear

Clear

Clear

Clear

Clear

Clear

Clear

Clear

Clear

Clear

Clear

Clear

Clear

Clear

Clear

Clouds
Temperature 70°F71°F69°F68°F66°F63°F60°F58°F57°F59°F66°F71°F75°F78°F79°F81°F81°F81°F80°F77°F70°F67°F65°F63°F62°F61°F60°F59°F58°F57°F57°F56°F55°F58°F64°F70°F75°F79°F81°F82°F83°F82°F81°F79°F71°F67°F66°F64°F
Feels Like 71°F71°F69°F68°F65°F62°F58°F56°F55°F58°F64°F69°F73°F76°F79°F79°F80°F79°F79°F76°F68°F65°F63°F61°F60°F59°F58°F57°F56°F55°F55°F54°F54°F57°F63°F69°F74°F79°F80°F80°F80°F80°F79°F78°F69°F66°F64°F63°F
Cloudiness 29%28%27%56%71%86%100%98%88%0%0%0%0%0%0%0%0%0%0%0%0%0%0%0%0%0%0%0%0%0%0%0%0%0%0%0%0%0%0%0%0%0%0%0%0%0%1%34%
Visibility 6 mi6 mi6 mi6 mi6 mi6 mi6 mi6 mi6 mi6 mi6 mi6 mi6 mi6 mi6 mi6 mi6 mi6 mi6 mi6 mi6 mi6 mi6 mi6 mi6 mi6 mi6 mi6 mi6 mi6 mi6 mi6 mi6 mi6 mi6 mi6 mi6 mi6 mi6 mi6 mi6 mi6 mi6 mi6 mi6 mi6 mi6 mi6 mi
Precipitation 36%29%25%0%0%0%0%0%0%0%0%0%0%0%0%0%0%0%0%0%0%0%0%0%0%0%0%0%0%0%0%0%0%0%0%0%0%0%0%0%0%0%0%0%0%0%0%0%
Humidity 76%79%76%72%68%63%61%64%65%62%49%39%31%27%24%22%22%22%24%29%40%41%42%46%49%51%53%55%57%60%62%64%65%62%50%42%36%32%27%24%23%22%23%32%38%41%44%46%
Dew Point 62°F64°F61°F58°F55°F50°F46°F46°F45°F46°F46°F45°F43°F41°F40°F39°F39°F39°F40°F43°F44°F42°F41°F42°F42°F43°F42°F42°F43°F43°F44°F44°F44°F45°F45°F46°F47°F46°F45°F43°F41°F40°F40°F46°F44°F43°F43°F43°F
Pressure 30.18"30.18"30.18"30.18"30.18"30.18"30.18"30.21"30.21"30.21"30.24"30.24"30.24"30.21"30.18"30.15"30.12"30.09"30.09"30.09"30.09"30.09"30.12"30.12"30.12"30.12"30.12"30.12"30.12"30.12"30.12"30.12"30.12"30.15"30.15"30.15"30.15"30.12"30.09"30.09"30.03"30.03"30.03"30.03"30.03"30.03"30.06"30.06"
Wind Speed 10.6 mph9 mph9.2 mph10 mph8.6 mph7.7 mph6.7 mph6 mph6.1 mph6.9 mph9.4 mph11 mph12.5 mph12.6 mph11.9 mph12.2 mph12.1 mph11.6 mph10.7 mph8.3 mph5.4 mph4.2 mph4 mph3.8 mph3.3 mph3.2 mph3.6 mph3.9 mph4.3 mph4 mph3.6 mph3.3 mph3.1 mph3 mph3 mph2.6 mph1.5 mph1.5 mph1.8 mph2.8 mph3.1 mph3.5 mph3.7 mph3.3 mph4.1 mph5.5 mph6 mph6.3 mph
Wind
Direction
13°
NNE

N
348°
NNW
350°
N
349°
N
344°
NNW
347°
NNW
341°
NNW
345°
NNW
351°
N
353°
N

N

N

N

N

N

N

N
10°
N
14°
NNE
21°
NNE
31°
NNE
29°
NNE
29°
NNE
31°
NNE
29°
NNE
31°
NNE
18°
NNE
36°
NE
62°
ENE
81°
E
85°
E
80°
E
82°
E
97°
E
105°
ESE
144°
SE
222°
SW
294°
WNW
332°
NNW
341°
NNW

N
19°
NNE
35°
NE
55°
NE
68°
ENE
85°
E
105°
ESE

Daily Forecast

Date High Low Precip. Humidity
Today
Sep 21

Rain
95 °F
70 °F
90%
44%
Wednesday
Sep 22

Clear
81 °F
57 °F
29%
24%
Thursday
Sep 23

Clear
82 °F
55 °F
0%
27%
Friday
Sep 24

Clouds
84 °F
58 °F
0%
31%
Saturday
Sep 25

Clouds
86 °F
61 °F
0%
32%
Sunday
Sep 26

Clouds
87 °F
60 °F
0%
29%
Monday
Sep 27

Clouds
90 °F
63 °F
0%
39%
Tuesday
Sep 28

Rain
82 °F
70 °F
100%
85%
Wednesday
Sep 29

Rain
72 °F
71 °F
100%
97%
Thursday
Sep 30

Rain
86 °F
68 °F
37%
57%
Friday
Oct 1

Rain
82 °F
65 °F
70%
65%
Saturday
Oct 2

Clouds
76 °F
64 °F
5%
57%
Sunday
Oct 3

Clouds
83 °F
65 °F
0%
51%
Monday
Oct 4

Clouds
89 °F
66 °F
1%
48%
Tuesday
Oct 5

Clear
90 °F
70 °F
0%
44%
Wednesday
Oct 6

Clouds
90 °F
73 °F
0%
43%

Temperature 8-14 Day Outlook



Precipitation 8-14 Day Outlook




Quick Links
Cypress Lake News
Cypress Lake Photos
Cypress Lake Videos




About Us
Contact Us
Site Map
Search Site
Advertise With Us
   
Cypress-LA.LakesOnline.com
THE CYPRESS LAKE WEBSITE

Copyright 2021, Lakes Online
Privacy    |    Legal